Weather reports worldwide

Advertisment
Montpellier, France (7643): temperature & dewpoint: 18.06.2018 11:00:00 - 24.06.2018 11:00:00 (CEST)Montpellier, France (7643): temperature 5cm: 18.06.2018 11:00:00 - 24.06.2018 11:00:00 (CEST)Montpellier, France (7643): temperature -20cm & temperature -100cm: 18.06.2018 11:00:00 - 24.06.2018 11:00:00 (CEST)Montpellier, France (7643): wind speed & gusts: 18.06.2018 11:00:00 - 24.06.2018 11:00:00 (CEST)Montpellier, France (7643): wind direction: 18.06.2018 11:00:00 - 24.06.2018 11:00:00 (CEST)Montpellier, France (7643): reduced air pressure: 18.06.2018 11:00:00 - 24.06.2018 11:00:00 (CEST)Montpellier, France (7643): visibility: 18.06.2018 11:00:00 - 24.06.2018 11:00:00 (CEST)Montpellier, France (7643): sunshine duration: 18.06.2018 11:00:00 - 24.06.2018 11:00:00 (CEST)Montpellier, France (7643): precipitation: 18.06.2018 11:00:00 - 24.06.2018 11:00:00 (CEST)
Date & Time tt [°C] td [°C] tt 5cm [°C] tt -20cm [°C] tt -100cm [°C] ff [km/h] ff [kn] fx [km/h] fx [kn] dd ppp [hPa] vv [km] sd [min] rr [mm]
24.06.2018 11:00:00 - - - - - - - - - - - - - -
24.06.2018 10:00:00 23,0 9,0 24,6 23,8 21,2 9 5 24 13 N 1017,6 60 29 0,0
24.06.2018 09:00:00 22,9 8,2 26,4 23,8 21,2 17 9 23 12 N 1017,7 44 60 0,0
24.06.2018 08:00:00 21,5 10,3 18,7 23,9 21,2 7 4 10 6 ENE 1017,7 52 60 0,0
24.06.2018 07:00:00 18,4 11,2 13,5 24,1 21,2 3 2 9 5 NNE 1017,5 35 13 0,0
24.06.2018 06:00:00 16,9 9,6 12,7 24,4 21,2 4 2 10 5 WNW 1017,5 44 0 0,0
24.06.2018 05:00:00 19,3 9,5 13,3 24,7 21,2 9 5 11 6 NW 1017,1 60 0 0,0
24.06.2018 04:00:00 17,7 10,3 13,8 24,9 21,2 5 3 10 5 N 1017,5 57 0 0,0
24.06.2018 03:00:00 19,2 9,4 13,0 25,2 21,2 7 4 11 6 NW 1017,8 60 0 0,0
24.06.2018 02:00:00 20,1 9,9 13,3 25,6 21,2 5 3 10 6 N 1018,1 60 0 0,0
24.06.2018 01:00:00 20,2 13,2 15,5 25,8 21,2 6 3 9 5 N 1018,4 31 0 0,0
24.06.2018 00:00:00 20,3 16,1 15,6 26,1 21,2 0 0 12 7 N 1018,6 29 0 0,0
23.06.2018 23:00:00 20,1 15,1 15,3 26,5 21,2 5 3 11 6 NW 1018,7 32 0 0,0
23.06.2018 22:00:00 22,4 16,4 16,4 26,7 21,1 8 4 13 7 SW 1018,1 37 0 0,0
23.06.2018 21:00:00 23,2 16,5 21,3 26,9 21,1 8 4 16 8 SSW 1017,4 38 55 0,0
23.06.2018 20:00:00 25,4 17,6 27,5 26,9 21,1 10 5 16 9 SSW 1017,4 54 60 0,0
23.06.2018 19:00:00 26,4 16,6 31,2 26,7 21,1 8 5 18 10 S 1017,0 34 60 0,0
23.06.2018 18:00:00 26,9 15,9 33,1 26,4 21,1 13 7 17 9 SSE 1017,4 32 60 0,0
23.06.2018 17:00:00 27,9 15,2 33,8 25,9 21,1 13 7 21 11 SE 1017,8 20 60 0,0
23.06.2018 16:00:00 28,4 13,5 33,7 25,3 21,1 13 7 25 14 E 1018,1 34 60 0,0
23.06.2018 15:00:00 28,1 11,6 32,9 24,8 21,1 13 7 32 17 NE 1018,4 25 60 0,0
23.06.2018 14:00:00 27,3 10,1 29,3 24,3 21,1 21 11 36 20 NNE 1018,8 20 52 0,0
23.06.2018 13:00:00 26,6 9,4 29,3 23,9 21,0 27 15 40 22 NE 1019,2 18 55 0,0
23.06.2018 12:00:00 25,6 6,7 29,0 23,6 21,1 32 17 45 25 N 1019,3 17 60 0,0
23.06.2018 11:00:00 23,9 6,6 27,4 23,4 21,0 31 17 51 28 N 1019,3 14 60 0,0
23.06.2018 10:00:00 22,5 5,4 25,7 23,3 21,0 34 18 55 30 NNE 1019,4 11 60 0,0
23.06.2018 09:00:00 21,5 4,5 23,3 23,4 21,0 29 16 49 27 N 1018,9 11 60 0,0
23.06.2018 08:00:00 20,1 4,9 18,8 23,6 21,0 23 13 40 22 N 1018,8 12 60 0,0
23.06.2018 07:00:00 17,6 5,2 12,5 23,8 21,0 19 10 26 14 N 1018,8 13 32 0,0
23.06.2018 06:00:00 15,9 4,9 8,7 24,1 21,0 14 8 18 10 N 1018,7 60 0 0,0
23.06.2018 05:00:00 15,5 5,4 8,9 24,4 21,0 4 2 16 9 NW 1018,7 60 0 0,0
23.06.2018 04:00:00 17,0 5,6 12,0 24,8 21,0 13 7 17 9 N 1018,5 60 0 0,0
23.06.2018 03:00:00 15,3 6,3 11,8 25,1 21,0 14 8 21 11 N 1018,6 60 0 0,0
23.06.2018 02:00:00 18,5 5,7 11,9 25,4 21,0 18 10 26 14 N 1018,2 60 0 0,0
23.06.2018 01:00:00 16,1 6,2 12,3 25,8 21,0 12 6 20 11 NNE 1018,4 60 0 0,0
23.06.2018 00:00:00 19,3 6,1 14,7 26,1 21,0 16 9 22 12 NNE 1018,0 60 0 0,0
22.06.2018 23:00:00 21,2 4,7 17,4 26,5 20,9 14 7 23 12 N 1017,6 60 0 0,0
22.06.2018 22:00:00 22,2 3,8 19,9 26,8 20,9 12 6 35 19 N 1017,0 58 4 0,0
22.06.2018 21:00:00 25,2 3,2 23,7 27,0 20,9 25 13 41 22 NNE 1016,1 38 60 0,0
22.06.2018 20:00:00 27,4 3,8 27,2 27,2 20,9 26 14 44 24 NNE 1015,8 4,5 60 0,0
22.06.2018 19:00:00 28,5 4,0 29,6 27,2 20,9 28 15 43 23 NNE 1015,3 4,8 60 0,0
22.06.2018 18:00:00 29,6 2,8 31,5 27,1 20,9 27 14 44 24 NNE 1014,9 6 60 0,0
22.06.2018 17:00:00 30,6 2,8 33,6 26,8 20,9 28 15 41 22 NNE 1014,6 6 60 0,0
22.06.2018 16:00:00 30,8 2,9 35,0 26,4 20,9 25 14 44 24 N 1014,8 4,0 60 0,0
22.06.2018 15:00:00 30,4 4,9 34,6 26,0 20,8 25 14 41 22 NNE 1015,3 2,8 60 0,0
22.06.2018 14:00:00 29,9 7,7 33,4 25,5 20,8 24 13 40 22 N 1015,8 5 60 0,0
22.06.2018 13:00:00 28,3 8,0 32,1 25,2 20,9 27 15 46 25 NNE 1016,3 9 60 0,0
22.06.2018 12:00:00 27,6 7,4 31,6 25,0 20,8 29 15 45 25 NNE 1016,9 13 60 0,0
22.06.2018 11:00:00 26,5 10,2 27,5 24,8 20,8 27 15 39 21 N 1016,9 14 39 0,0
22.06.2018 10:00:00 24,3 14,1 26,5 24,8 20,8 18 10 31 17 NE 1016,9 14 45 0,0
22.06.2018 09:00:00 22,7 13,7 24,0 24,9 20,8 13 7 32 17 N 1017,0 16 43 0,0
22.06.2018 08:00:00 22,2 14,6 19,8 25,1 20,8 15 8 27 15 N 1016,8 18 41 0,0
22.06.2018 07:00:00 20,6 15,4 18,1 25,3 20,8 11 6 23 12 N 1016,5 30 3 0,0
22.06.2018 06:00:00 20,6 15,6 17,9 25,6 20,8 8 4 16 9 N 1016,2 57 0 0,0
22.06.2018 05:00:00 21,2 16,4 17,7 25,8 20,8 5 3 23 12 NNE 1016,1 56 0 0,0
22.06.2018 04:00:00 21,7 16,4 19,9 26,0 20,8 10 5 18 10 NNE 1015,9 59 0 0,0
22.06.2018 03:00:00 22,7 18,2 20,9 26,2 20,8 11 6 19 10 NNE 1016,0 42 0 0,0
22.06.2018 02:00:00 23,8 18,9 22,2 26,4 20,7 14 8 20 11 N 1016,1 40 0 0,0
22.06.2018 01:00:00 23,7 19,8 21,5 26,6 20,7 7 4 9 5 NNE 1015,7 27 0 0,0
22.06.2018 00:00:00 25,3 19,0 20,9 26,9 20,7 4 2 9 5 NW 1015,4 33 0 0,0
21.06.2018 23:00:00 25,3 19,0 21,3 27,1 20,7 3 2 9 5 NW 1015,1 33 0 0,0
21.06.2018 22:00:00 24,5 18,4 22,6 27,3 20,7 5 3 18 10 N 1014,8 30 4 0,0
21.06.2018 21:00:00 25,7 18,9 25,7 27,5 20,7 15 8 21 12 N 1014,6 32 60 0,0
21.06.2018 20:00:00 25,8 19,9 24,5 27,7 20,7 5 3 35 19 E 1014,2 37 3 0,0
21.06.2018 19:00:00 24,7 17,7 25,4 27,9 20,7 24 13 37 20 SSW 1013,8 31 2 0,0
21.06.2018 18:00:00 25,0 17,2 25,6 28,0 20,6 24 13 33 18 SSW 1014,0 54 0 0,0
21.06.2018 17:00:00 25,6 16,7 26,4 27,8 20,7 20 11 30 16 SW 1015,0 42 41 0,0
21.06.2018 16:00:00 27,5 17,4 37,4 27,3 20,6 18 10 26 14 SSW 1015,4 20 60 0,0
21.06.2018 15:00:00 28,2 17,4 39,8 26,7 20,6 15 8 23 12 SSW 1016,1 20 60 0,0
21.06.2018 14:00:00 27,0 17,5 40,0 26,1 20,6 15 8 24 13 S 1016,6 24 60 0,0
21.06.2018 13:00:00 26,4 16,9 40,1 25,6 20,6 14 8 19 11 SSW 1017,0 25 60 0,0
21.06.2018 12:00:00 25,9 19,1 38,3 25,1 20,6 12 7 18 10 SSW 1017,4 20 60 0,0
21.06.2018 11:00:00 26,0 19,4 38,5 24,7 20,6 11 6 15 8 S 1017,5 24 60 0,0
21.06.2018 10:00:00 25,7 20,3 32,6 24,5 20,6 6 3 9 5 SSE 1017,6 19 54 0,0
21.06.2018 09:00:00 25,8 19,4 28,9 24,4 20,5 3 2 8 5 ENE 1017,8 17 60 0,0
21.06.2018 08:00:00 22,7 19,5 22,2 24,6 20,6 6 3 14 7 NNE 1017,6 8 60 0,0
21.06.2018 07:00:00 19,9 17,9 17,0 24,7 20,6 6 3 10 6 NNE 1017,7 10 33 0,0
21.06.2018 06:00:00 18,7 16,8 15,9 25,0 20,5 6 3 9 5 N 1017,6 9 0 0,0
21.06.2018 05:00:00 18,5 16,5 16,1 25,2 20,6 8 4 10 5 NE 1017,6 10 0 0,0
21.06.2018 04:00:00 19,6 16,8 16,4 25,5 20,5 8 4 9 5 N 1017,9 13 0 0,0
21.06.2018 03:00:00 19,4 17,2 16,1 25,8 20,5 4 2 10 5 NNE 1018,4 14 0 0,0
21.06.2018 02:00:00 19,4 17,4 16,3 26,1 20,5 4 2 7 4 NNE 1018,6 17 0 0,0
21.06.2018 01:00:00 21,2 17,6 16,9 26,4 20,5 6 3 7 4 NNW 1018,6 21 0 0,0
21.06.2018 00:00:00 20,7 17,5 17,5 26,7 20,5 3 2 7 4 NNE 1019,0 24 0 0,0
20.06.2018 23:00:00 22,5 17,6 18,0 27,1 20,5 4 2 11 6 SW 1019,2 7 0 0,0
20.06.2018 22:00:00 22,9 18,0 19,0 27,5 20,5 7 4 10 6 SSW 1018,7 53 3 0,0
20.06.2018 21:00:00 23,5 17,9 22,0 27,7 20,5 7 4 16 9 SSW 1018,2 17 42 0,0
20.06.2018 20:00:00 24,9 18,1 26,8 27,8 20,5 10 5 20 11 SSW 1018,2 29 60 0,0
20.06.2018 19:00:00 25,6 17,8 31,4 27,7 20,5 13 7 18 10 SSW 1018,2 25 60 0,0
20.06.2018 18:00:00 25,3 18,2 32,1 27,5 20,5 11 6 22 12 SSW 1018,3 21 60 0,0
20.06.2018 17:00:00 24,9 19,0 32,2 27,2 20,4 18 10 24 13 SSE 1018,6 20 60 0,0
20.06.2018 16:00:00 25,0 19,1 34,5 26,7 20,4 16 8 21 12 SSE 1018,8 24 60 0,0
20.06.2018 15:00:00 26,5 18,4 36,6 26,2 20,4 16 8 22 12 SSE 1018,8 20 60 0,0
20.06.2018 14:00:00 27,2 19,0 38,0 25,5 20,4 15 8 20 11 SSE 1019,1 32 60 0,0
20.06.2018 13:00:00 28,6 19,5 40,9 24,9 20,4 9 5 14 7 SSE 1019,3 13 60 0,0
20.06.2018 12:00:00 27,9 19,1 35,6 24,4 20,4 10 5 18 10 SSE 1019,5 40 60 0,0
20.06.2018 11:00:00 27,9 18,6 33,6 24,0 20,4 13 7 20 11 E 1019,3 39 60 0,0
20.06.2018 10:00:00 27,0 17,5 31,7 23,9 20,4 15 8 22 12 NNE 1019,4 18 60 0,0
20.06.2018 09:00:00 25,6 16,4 29,8 23,9 20,4 11 6 18 10 N 1019,2 32 60 0,0
20.06.2018 08:00:00 22,4 16,7 23,2 24,0 20,4 10 5 14 8 N 1019,2 39 60 0,0
20.06.2018 07:00:00 20,6 16,6 15,0 24,2 20,4 4 2 7 4 NNE 1019,0 47 33 0,0
20.06.2018 06:00:00 18,4 15,6 15,0 24,4 20,4 3 2 7 4 NE 1018,8 58 0 0,0
20.06.2018 05:00:00 19,6 16,2 15,9 24,7 20,3 4 2 6 3 N 1018,5 42 0 0,0
20.06.2018 04:00:00 20,8 16,0 16,6 25,0 20,4 5 3 11 6 NW 1018,6 40 0 0,0
20.06.2018 03:00:00 22,2 17,3 16,4 25,2 20,4 6 3 7 4 W 1018,9 29 0 0,0
20.06.2018 02:00:00 21,3 17,3 17,3 25,5 20,3 4 2 10 6 NNW 1019,2 35 0 0,0
20.06.2018 01:00:00 22,5 17,0 17,4 25,8 20,3 2 1 7 4 SSW 1019,4 45 0 0,0
20.06.2018 00:00:00 23,3 18,8 18,2 26,2 20,3 5 3 9 5 S 1019,3 50 0 0,0
19.06.2018 23:00:00 22,4 19,0 19,1 26,5 20,3 6 4 12 6 ESE 1019,2 26 0 0,0
19.06.2018 22:00:00 25,0 17,0 20,5 26,7 20,2 2 1 9 5 ENE 1018,6 42 3 0,0
19.06.2018 21:00:00 27,9 16,8 24,9 26,9 20,3 8 5 16 9 W 1018,1 21 60 0,0
19.06.2018 20:00:00 28,9 17,1 30,3 26,9 20,3 10 5 17 9 SW 1018,2 54 60 0,0
19.06.2018 19:00:00 29,0 15,9 33,9 26,8 20,3 13 7 18 10 SW 1018,4 32 60 0,0
19.06.2018 18:00:00 29,7 17,5 36,4 26,4 20,2 14 7 21 12 SSW 1018,6 32 60 0,0
19.06.2018 17:00:00 29,9 17,7 36,8 26,0 20,3 13 7 17 9 S 1018,9 36 60 0,0
19.06.2018 16:00:00 31,2 16,8 37,1 25,4 20,3 10 5 18 10 E 1019,2 20 60 0,0
19.06.2018 15:00:00 30,9 15,3 37,2 24,7 20,2 14 8 24 13 E 1019,6 18 60 0,0
19.06.2018 14:00:00 30,3 15,6 35,9 24,1 20,2 14 8 35 19 NE 1019,8 20 60 0,0
19.06.2018 13:00:00 29,6 16,1 33,9 23,6 20,2 21 12 35 19 NNE 1020,1 19 60 0,0
19.06.2018 12:00:00 28,1 15,0 33,4 23,2 20,2 20 11 39 21 NNE 1020,2 16 60 0,0
19.06.2018 11:00:00 26,8 14,9 29,3 22,9 20,2 22 12 38 21 N 1020,5 8 60 0,0
19.06.2018 10:00:00 25,3 13,8 29,0 22,8 20,2 26 14 40 22 NNE 1020,8 9 60 0,0
19.06.2018 09:00:00 23,4 13,6 28,4 22,8 20,2 18 10 29 16 N 1020,8 25 60 0,0
19.06.2018 08:00:00 22,1 12,9 21,3 22,9 20,2 11 6 17 9 NW 1020,8 29 60 0,0
19.06.2018 07:00:00 20,1 13,1 12,9 23,1 20,2 11 6 16 8 NW 1020,7 32 33 0,0
19.06.2018 06:00:00 17,0 12,5 12,5 23,4 20,2 8 5 10 5 NW 1020,6 60 0 0,0
19.06.2018 05:00:00 17,2 11,5 13,0 23,6 20,2 3 2 9 5 WNW 1020,6 60 0 0,0
19.06.2018 04:00:00 19,5 13,0 13,4 23,9 20,2 6 4 12 7 NW 1020,3 60 0 0,0
19.06.2018 03:00:00 19,7 12,7 16,2 24,2 20,2 10 6 16 8 NW 1020,2 60 0 0,0
19.06.2018 02:00:00 21,0 13,4 18,2 24,4 20,2 13 7 21 11 NW 1020,2 57 0 0,0
19.06.2018 01:00:00 22,2 13,5 17,8 24,7 20,2 12 6 16 9 NW 1020,5 60 0 0,0
19.06.2018 00:00:00 22,8 13,3 19,1 25,0 20,2 9 5 16 9 NW 1020,5 60 0 0,0
18.06.2018 23:00:00 22,1 12,9 18,9 25,2 20,1 13 7 16 9 N 1020,2 60 0 0,0
18.06.2018 22:00:00 23,9 12,8 21,7 25,5 20,1 9 5 31 17 N 1019,4 24 3 0,0
18.06.2018 21:00:00 26,0 12,8 24,9 25,7 20,1 19 11 31 17 N 1018,8 42 60 0,0
18.06.2018 20:00:00 28,2 13,3 28,0 25,7 20,1 20 11 34 18 NNE 1018,3 33 60 0,0
18.06.2018 19:00:00 29,0 13,2 30,8 25,7 20,1 24 13 34 18 NNE 1017,9 19 60 0,0
18.06.2018 18:00:00 29,7 13,5 32,2 25,5 20,1 22 12 35 19 NNE 1018,1 19 60 0,0
18.06.2018 17:00:00 29,7 12,6 33,4 25,1 20,1 22 12 37 20 NNE 1018,2 18 60 0,0
18.06.2018 16:00:00 29,5 12,9 33,4 24,7 20,1 23 13 40 21 NNE 1018,3 19 60 0,0
18.06.2018 15:00:00 29,1 12,1 33,1 24,1 20,1 21 11 33 18 NNE 1018,7 21 60 0,0
18.06.2018 14:00:00 28,7 12,2 33,1 23,6 20,1 25 13 37 20 NNE 1019,0 20 60 0,0
18.06.2018 13:00:00 27,7 12,9 32,7 23,1 20,1 21 11 32 17 NNE 1019,3 24 60 0,0
18.06.2018 12:00:00 26,9 12,2 32,3 22,7 20,1 21 12 36 19 N 1019,5 24 60 0,0
18.06.2018 11:00:00 25,7 11,1 31,9 22,4 20,1 22 12 33 18 N 1019,5 26 60 0,0

tt = temperature
td = dewpoint
tt 5cm = temperature 5cm
tt -20cm = temperature -20cm
tt -100cm = temperature -100cm
ff = wind speed
fx = gusts
dd = wind direction
ppp = reduced air pressure
vv = visibility
sd = sunshine duration
rr = precipitation

Next stations